Regional Weather Roundup
Issued by NWS Little Rock, AR

Home | Current Version | Previous Version | Graphics & Text | Print | Product List | Glossary Off
Versions: 1 2 3 4 5 6 7 8 9 10 11 12 13 14 15 16 17 18 19 20 21 22 23 24 25 26 27 28 29 30 31 32 33 34 35 36 37 38 39 40 41 42 43 44 45 46 47 48 49 50

000
ASUS44 KLZK 240612
RWRLZK

WEATHER ROUNDUP FOR ARKANSAS
NATIONAL WEATHER SERVICE LITTLE ROCK AR
1200 AM CST FRI NOV 24 2017

NOTE: "FAIR" INDICATES FEW OR NO CLOUDS BELOW 12,000 FEET WITH NO
SIGNIFICANT WEATHER AND/OR OBSTRUCTIONS TO VISIBILITY.

ARZ001-003-010-029-240700-
NORTHWEST ARKANSAS

CITY           SKY/WX    TMP DP  RH WIND       PRES   REMARKS
FAYETTEVILLE   CLOUDY    39  32  76 CALM      30.00F
6HR MIN TEMP:  38; 6HR MAX TEMP:  47;

FORT SMITH     CLOUDY    42  34  73 NE3       30.01F
6HR MIN TEMP:  40; 6HR MAX TEMP:  54;

HARRISON       CLEAR     44  31  60 CALM      29.98F
6HR MIN TEMP:  43; 6HR MAX TEMP:  56;

BENTONVILLE    CLOUDY    45  29  53 S6        30.00F
6HR MIN TEMP:  44; 6HR MAX TEMP:  54;

ROGERS         CLOUDY    46  30  53 S8        29.99F
6HR MIN TEMP:  45; 6HR MAX TEMP:  55;

SILOAM SPGS    CLOUDY    47  29  49 S6        29.99F
6HR MIN TEMP:  46; 6HR MAX TEMP:  55;

HIGHFILL       CLOUDY    46  29  51 S5        29.98F
6HR MIN TEMP:  42; 6HR MAX TEMP:  55;

$$

ARZ004-005-016-240700-
NORTH CENTRAL ARKANSAS

CITY           SKY/WX    TMP DP  RH WIND       PRES   REMARKS
BATESVILLE     CLEAR     45  27  49 CALM      29.99F
6HR MIN TEMP:  44; 6HR MAX TEMP:  52;

FLIPPIN        CLEAR     44  31  60 CALM      29.99S
6HR MIN TEMP:  41; 6HR MAX TEMP:  54;

MTN HOME       CLEAR     48  30  49 NW3       29.97F
6HR MIN TEMP:  45; 6HR MAX TEMP:  53;

$$

ARZ040-041-240700-
WEST CENTRAL ARKANSAS

CITY           SKY/WX    TMP DP  RH WIND       PRES   REMARKS
MENA           CLEAR     43  32  65 CALM      30.03F
MOUNT IDA      CLEAR     38  32  79 CALM      30.00F
6HR MIN TEMP:  37; 6HR MAX TEMP:  52;

$$

ARZ009-017-025-026-028-240700-
NORTHEAST ARKANSAS

CITY           SKY/WX    TMP DP  RH WIND       PRES   REMARKS
JONESBORO      CLEAR     38  30  73 SE3       30.01F
6HR MIN TEMP:  37; 6HR MAX TEMP:  46;

NEWPORT        CLEAR     37  31  78 S10       30.00F
6HR MIN TEMP:  36; 6HR MAX TEMP:  43;

WALNUT RIDGE     N/A     36  30  79 S8        29.99F
BLYTHEVILLE    CLEAR     40  30  67 S7        30.03F
6HR MIN TEMP:  39; 6HR MAX TEMP:  45;

$$

ARZ022-023-033-042-044-240700-
CENTRAL ARKANSAS

CITY           SKY/WX    TMP DP  RH WIND       PRES   REMARKS
LITTLE ROCK    CLEAR     39  32  76 CALM      30.02F
6HR MIN TEMP:  35; 6HR MAX TEMP:  50;

N LITTLE ROCK    N/A     45  29  53 SW5       30.05F
6HR MIN TEMP:  45; 6HR MAX TEMP:  52;

JACKSONVILLE   CLEAR     33  28  82 CALM      30.00F
6HR MIN TEMP:  33; 6HR MAX TEMP:  46;

SEARCY         CLEAR     33  32  96 CALM      30.01F
6HR MIN TEMP:  33; 6HR MAX TEMP:  46;

HOT SPRINGS    CLEAR     41  33  73 NW5       30.04S
6HR MIN TEMP:  41; 6HR MAX TEMP:  54;

RUSSELLVILLE   CLEAR     35  32  88 CALM      30.00F
6HR MIN TEMP:  35; 6HR MAX TEMP:  46;

CLINTON        FAIR      32  30  93 CALM      30.02F
$$

ARZ036-240700-
EAST ARKANSAS

CITY           SKY/WX    TMP DP  RH WIND       PRES   REMARKS
WEST MEMPHIS   CLEAR     38  32  79 S3        30.03F
6HR MIN TEMP:  34; 6HR MAX TEMP:  45;

$$

ARZ050-053-066-070-073-240700-
SOUTHWEST ARKANSAS

CITY           SKY/WX    TMP DP  RH WIND       PRES   REMARKS
ARKADELPHIA    FAIR      31  28  89 CALM      30.06F
6HR MIN TEMP:  31; 6HR MAX TEMP:  46;

CAMDEN         CLEAR     34  30  86 CALM      30.05F
TEXARKANA      CLEAR     42  32  67 S5        30.05F
6HR MIN TEMP:  41; 6HR MAX TEMP:  51;

EL DORADO      CLEAR     36  35  96 CALM      30.06F
6HR MIN TEMP:  35; 6HR MAX TEMP:  47;

DE QUEEN       CLEAR     35  34  96 CALM      30.03F
6HR MIN TEMP:  34; 6HR MAX TEMP:  49;

$$

ARZ056-057-069-240700-
SOUTHEAST ARKANSAS

CITY           SKY/WX    TMP DP  RH WIND       PRES   REMARKS
PINE BLUFF     CLEAR     37  29  72 S3        30.04F
6HR MIN TEMP:  35; 6HR MAX TEMP:  49;

STUTTGART      CLEAR     44  28  53 S8        30.03F
6HR MIN TEMP:  38; 6HR MAX TEMP:  51; 6HR PCP: TRACE;

MONTICELLO     CLEAR     38  30  73 CALM      30.06F
6HR MIN TEMP:  36; 6HR MAX TEMP:  47;


$$





USA.gov is the U.S. government's official web portal to all federal, state and local government web resources and services.